GW4147 Weather Reports


Display with metric or nautical units.
time (UTC)temp
F
wind
direction
speed
MPH
gust
MPH
rain 1hr
in
rain 24hr
in
rain mn
in
humidity
%
barometer
mb
20260901150521 90 220 2.0 5.0 0.00 0.00 0.00 53 1017.2
20260901150019 91 178 3.0 4.0 0.00 0.00 0.00 53 1017.5
20260901145512 90 146 2.0 4.0 0.00 0.00 0.00 53 1017.5
20260901145007 91 108 2.0 7.0 0.00 0.00 0.00 53 1017.4
20260901144503 90 229 2.0 7.0 0.00 0.00 0.00 54 1017.5
20260901143958 89 220 2.0 4.0 0.00 0.00 0.00 55 1017.4
20260901143453 89 158 3.0 6.0 0.00 0.00 0.00 54 1017.5
20260901142949 89 195 2.0 4.0 0.00 0.00 0.00 56 1017.4
20260901142444 89 149 4.0 6.0 0.00 0.00 0.00 56 1017.5
20260901141938 89 117 4.0 5.0 0.00 0.00 0.00 57 1017.7
20260901141433 89 183 2.0 4.0 0.00 0.00 0.00 56 1017.5
20260901140928 88 129 2.0 6.0 0.00 0.00 0.00 58 1017.4
20260901140425 88 158 2.0 5.0 0.00 0.00 0.00 57 1017.6
20260901135920 87 92 5.0 7.0 0.00 0.00 0.00 58 1017.6
20260901135415 87 137 3.0 4.0 0.00 0.00 0.00 59 1017.5
20260901134911 87 137 2.0 5.0 0.00 0.00 0.00 61 1017.4
20260901134406 86 191 2.0 4.0 0.00 0.00 0.00 62 1017.6
20260901133906 86 102 3.0 5.0 0.00 0.00 0.00 63 1017.6
20260901133400 86 115 5.0 6.0 0.00 0.00 0.00 62 1017.5
20260901132859 86 109 2.0 3.0 0.00 0.00 0.00 62 1017.4
20260901132353 86 127 3.0 4.0 0.00 0.00 0.00 63 1017.3
20260901131847 85 138 2.0 3.0 0.00 0.00 0.00 63 1017.3
20260901131346 85 111 2.0 3.0 0.00 0.00 0.00 63 1017.4
20260901130842 85 94 2.0 3.0 0.00 0.00 0.00 63 1017.3
20260901130337 85 86 2.0 3.0 0.00 0.00 0.00 62 1017.2
20260901125835 85 86 1.0 2.0 0.00 0.00 0.00 62 1017.1
20260901125334 84 51 1.0 2.0 0.00 0.00 0.00 65 1017.1
20260901124829 82 123 1.0 2.0 0.00 0.00 0.00 68 1017.0
20260901124324 82 113 0.0 2.0 0.00 0.00 0.00 68 1016.9
20260901123824 81 137 1.0 2.0 0.00 0.00 0.00 69 1016.8
20260901123319 81 227 0.0 2.0 0.00 0.00 0.00 70 1016.8
20260901122817 80 209 0.0 2.0 0.00 0.00 0.00 71 1016.8
20260901122312 79 333 0.0 2.0 0.00 0.00 0.00 72 1016.7
20260901121811 79 133 0.0 2.0 0.00 0.00 0.00 73 1016.7
20260901121307 78 50 1.0 2.0 0.00 0.00 0.00 73 1016.7
20260901120801 79 110 0.0 2.0 0.00 0.00 0.00 73 1016.6
20260901120255 79 1 0.0 2.0 0.00 0.00 0.00 72 1016.3
20260901115751 79 118 1.0 2.0 0.00 0.00 0.00 72 1016.2
20260901115247 79 219 0.0 2.0 0.00 0.00 0.00 72 1016.6
20260901114743 78 190 1.0 2.0 0.00 0.00 0.00 72 1016.3
20260901114239 79 24 0.0 2.0 0.00 0.00 0.00 72 1016.1
20260901113737 79 253 0.0 2.0 0.00 0.00 0.00 71 1016.2
20260901113232 79 194 1.0 2.0 0.00 0.00 0.00 71 1016.1
20260901112731 80 208 0.0 2.0 0.00 0.00 0.00 70 1016.2
20260901112226 80 292 1.0 2.0 0.00 0.00 0.00 69 1016.2
20260901111721 80 112 1.0 1.0 0.00 0.00 0.00 70 1016.2
20260901111220 80 10 0.0 0.0 0.00 0.00 0.00 69 1016.1
20260901110714 80 162 0.0 2.0 0.00 0.00 0.00 69 1016.1
20260901110209 80 119 0.0 1.0 0.00 0.00 0.00 68 1016.0
20260901105706 81 91 0.0 2.0 0.00 0.00 0.00 67 1016.2
20260901105206 81 150 0.0 2.0 0.00 0.00 0.00 67 1016.1
20260901104702 81 78 0.0 3.0 0.00 0.00 0.00 66 1016.0
20260901104157 81 159 0.0 2.0 0.00 0.00 0.00 66 1016.0
20260901103656 81 150 1.0 2.0 0.00 0.00 0.00 66 1016.0
20260901103151 81 182 1.0 2.0 0.00 0.00 0.00 65 1015.9
20260901102646 82 235 0.0 2.0 0.00 0.00 0.00 65 1015.9
20260901102145 82 184 0.0 2.0 0.00 0.00 0.00 64 1016.1
20260901101642 82 140 2.0 3.0 0.00 0.00 0.00 64 1015.8
20260901101140 82 112 2.0 5.0 0.00 0.00 0.00 63 1016.0
20260901100635 82 104 2.0 3.0 0.00 0.00 0.00 63 1015.9
20260901100130 83 188 1.0 4.0 0.00 0.00 0.00 62 1015.9
20260901095628 83 208 1.0 3.0 0.00 0.00 0.00 62 1015.8
20260901095126 83 192 2.0 4.0 0.00 0.00 0.00 62 1015.8
20260901094620 83 200 3.0 4.0 0.00 0.00 0.00 61 1015.8
20260901094115 83 118 2.0 5.0 0.00 0.00 0.00 61 1015.6
20260901093610 83 207 3.0 5.0 0.00 0.00 0.00 61 1015.7
20260901093104 83 241 3.0 6.0 0.00 0.00 0.00 60 1015.8
20260901092600 83 235 5.0 10.0 0.00 0.00 0.00 60 1015.8
20260901092056 83 188 5.0 6.0 0.00 0.00 0.00 60 1015.8
20260901091551 83 183 5.0 5.0 0.00 0.00 0.00 59 1016.0
20260901091046 83 117 1.0 4.0 0.00 0.00 0.00 59 1016.0
20260901090545 84 218 2.0 5.0 0.00 0.00 0.00 59 1016.0
20260901090041 83 145 3.0 5.0 0.00 0.00 0.00 59 1016.0
20260901085536 83 175 2.0 7.0 0.00 0.00 0.00 59 1016.0
20260901085033 83 94 1.0 3.0 0.00 0.00 0.00 59 1016.0
20260901084528 82 42 0.0 4.0 0.00 0.00 0.00 59 1016.0
20260901084024 82 149 1.0 3.0 0.00 0.00 0.00 59 1016.0
20260901083519 82 129 0.0 3.0 0.00 0.00 0.00 59 1015.9
20260901083016 82 176 0.0 3.0 0.00 0.00 0.00 59 1015.8
20260901082512 82 141 0.0 2.0 0.00 0.00 0.00 59 1015.7
20260901082007 82 69 0.0 2.0 0.00 0.00 0.00 59 1015.7
20260901081502 82 142 0.0 1.0 0.00 0.00 0.00 59 1015.6
20260901080957 82 119 1.0 2.0 0.00 0.00 0.00 58 1015.8
20260901080455 82 118 0.0 2.0 0.00 0.00 0.00 57 1015.7
20260901075950 82 110 1.0 2.0 0.00 0.00 0.00 57 1015.8
20260901075446 82 109 0.0 2.0 0.00 0.00 0.00 56 1015.8
20260901074945 82 128 1.0 3.0 0.00 0.00 0.00 56 1015.8
20260901074439 83 166 1.0 2.0 0.00 0.00 0.00 56 1015.6
20260901073935 83 109 2.0 2.0 0.00 0.00 0.00 56 1015.8
20260901073431 83 98 2.0 2.0 0.00 0.00 0.00 55 1015.8
20260901072926 83 111 2.0 2.0 0.00 0.00 0.00 55 1015.6
20260901072421 83 84 1.0 3.0 0.00 0.00 0.00 54 1015.6
20260901071916 83 37 1.0 4.0 0.00 0.00 0.00 54 1015.8
20260901071415 83 111 0.0 3.0 0.00 0.00 0.00 54 1015.6
20260901070914 84 89 0.0 2.0 0.00 0.00 0.00 53 1015.7
20260901070410 84 150 2.0 3.0 0.00 0.00 0.00 53 1015.6
20260901065908 84 108 1.0 3.0 0.00 0.00 0.00 53 1015.8
20260901065404 83 87 1.0 3.0 0.00 0.00 0.00 52 1015.7
20260901064859 83 108 0.0 3.0 0.00 0.00 0.00 52 1015.7
20260901064355 83 135 4.0 4.0 0.00 0.00 0.00 52 1015.8
20260901063853 83 116 2.0 4.0 0.00 0.00 0.00 51 1015.7
20260901063349 84 82 2.0 4.0 0.00 0.00 0.00 51 1015.6
20260901062844 84 124 0.0 3.0 0.00 0.00 0.00 50 1015.7
20260901062340 84 104 3.0 3.0 0.00 0.00 0.00 50 1015.5
20260901061835 84 92 2.0 5.0 0.00 0.00 0.00 50 1015.6
20260901061330 84 91 5.0 5.0 0.00 0.00 0.00 50 1015.6
20260901060825 84 115 1.0 3.0 0.00 0.00 0.00 50 1015.4
20260901060321 84 101 2.0 3.0 0.00 0.00 0.00 49 1015.4
20260901055815 84 101 2.0 3.0 0.00 0.00 0.00 49 1015.3
20260901055312 84 80 2.0 3.0 0.00 0.00 0.00 49 1015.2
20260901054809 85 99 2.0 3.0 0.00 0.00 0.00 48 1015.1
20260901054305 85 127 2.0 4.0 0.00 0.00 0.00 48 1015.4
20260901053801 85 117 2.0 4.0 0.00 0.00 0.00 48 1015.1
20260901053255 84 100 2.0 4.0 0.00 0.00 0.00 49 1015.2
20260901052751 84 101 3.0 5.0 0.00 0.00 0.00 49 1015.3
20260901052247 83 88 3.0 3.0 0.00 0.00 0.00 50 1015.3
20260901051745 83 144 3.0 3.0 0.00 0.00 0.00 50 1015.0
20260901051240 82 195 0.0 2.0 0.00 0.00 0.00 51 1015.1
20260901050735 82 165 0.0 1.0 0.00 0.00 0.00 51 1014.9
20260901050231 82 125 0.0 2.0 0.00 0.00 0.00 50 1014.9
20260901045726 83 30 0.0 2.0 0.00 0.00 0.00 50 1014.7
20260901045221 82 203 0.0 1.0 0.00 0.00 0.00 50 1014.9
20260901044716 82 171 0.0 1.0 0.00 0.00 0.00 50 1014.7
20260901044214 83 50 0.0 2.0 0.00 0.00 0.00 50 1014.8
20260901043708 84 103 0.0 0.0 0.00 0.00 0.00 48 1014.7
20260901043203 84 168 1.0 1.0 0.00 0.00 0.00 48 1014.8
20260901042702 84 187 0.0 2.0 0.00 0.00 0.00 48 1014.7
20260901042157 84 194 2.0 2.0 0.00 0.00 0.00 49 1014.9
20260901041653 83 145 1.0 3.0 0.00 0.00 0.00 50 1014.8
20260901041152 82 141 0.0 2.0 0.00 0.00 0.00 51 1014.9
20260901040648 83 122 0.0 1.0 0.00 0.00 0.00 50 1014.8
20260901040141 83 177 0.0 1.0 0.00 0.00 0.00 50 1014.8
20260901035640 83 32 0.0 1.0 0.00 0.00 0.00 48 1014.8
20260901035138 84 29 1.0 1.0 0.00 0.00 0.00 48 1014.9
20260901034633 84 61 0.0 1.0 0.00 0.00 0.00 47 1014.8
20260901034127 85 154 0.0 0.0 0.00 0.00 0.00 46 1014.8
20260901033626 85 130 0.0 0.0 0.00 0.00 0.00 45 1014.6
20260901033121 85 129 0.0 1.0 0.00 0.00 0.00 45 1014.8
20260901032619 86 144 0.0 1.0 0.00 0.00 0.00 45 1014.6
20260901032114 86 141 0.0 0.0 0.00 0.00 0.00 44 1014.9
20260901031610 86 147 1.0 1.0 0.00 0.00 0.00 44 1014.9
20260901031106 86 113 0.0 0.0 0.00 0.00 0.00 44 1014.6
20260901030605 87 147 0.0 0.0 0.00 0.00 0.00 43 1014.8
20260901030106 87 129 0.0 1.0 0.00 0.00 0.00 43 1014.7
20260901025600 87 152 0.0 1.0 0.00 0.00 0.00 42 1014.7
20260901025055 87 61 0.0 0.0 0.00 0.00 0.00 42 1014.6
20260901024550 88 87 0.0 0.0 0.00 0.00 0.00 41 1014.4
20260901024048 88 147 0.0 0.0 0.00 0.00 0.00 40 1014.4
20260901023547 88 135 0.0 1.0 0.00 0.00 0.00 40 1014.4
20260901023043 88 124 0.0 2.0 0.00 0.00 0.00 40 1014.3
20260901022537 88 180 0.0 2.0 0.00 0.00 0.00 40 1014.2
20260901022033 88 172 0.0 2.0 0.00 0.00 0.00 40 1013.9
20260901021529 89 170 1.0 2.0 0.00 0.00 0.00 41 1014.1
20260901021024 89 92 0.0 4.0 0.00 0.00 0.00 40 1014.0
20260901020519 88 129 0.0 0.0 0.00 0.00 0.00 41 1014.0
20260901020015 88 36 2.0 3.0 0.00 0.00 0.00 41 1014.1
20260901015510 88 89 0.0 0.0 0.00 0.00 0.00 40 1013.7
20260901015009 89 89 0.0 0.0 0.00 0.00 0.00 39 1014.0
20260901014505 89 154 0.0 0.0 0.00 0.00 0.00 38 1013.8
20260901014001 90 205 0.0 0.0 0.00 0.00 0.00 38 1013.8
20260901013456 90 140 0.0 1.0 0.00 0.00 0.00 37 1013.9
20260901012952 90 136 0.0 3.0 0.00 0.00 0.00 37 1013.6
20260901012451 91 37 0.0 1.0 0.00 0.00 0.00 37 1013.8
20260901011947 91 62 0.0 0.0 0.00 0.00 0.00 36 1013.6
20260901011443 92 50 0.0 0.0 0.00 0.00 0.00 35 1013.7
20260901010940 92 164 0.0 1.0 0.00 0.00 0.00 35 1013.8
20260901010436 93 181 1.0 2.0 0.00 0.00 0.00 34 1013.8
20260901005935 93 104 0.0 2.0 0.00 0.00 0.00 34 1013.6
20260901005430 94 141 2.0 2.0 0.00 0.00 0.00 33 1013.6
20260901004925 94 137 1.0 2.0 0.00 0.00 0.00 32 1013.5
20260901004424 95 136 0.0 5.0 0.00 0.00 0.00 32 1013.6
20260901003919 95 213 0.0 4.0 0.00 0.00 0.00 32 1013.4
20260901003414 96 160 0.0 3.0 0.00 0.00 0.00 31 1013.3
20260901002912 96 168 2.0 3.0 0.00 0.00 0.00 31 1013.5
20260901002406 97 126 1.0 3.0 0.00 0.00 0.00 30 1013.6
20260901001901 97 142 2.0 4.0 0.00 0.00 0.00 30 1013.6
20260901001357 98 22 2.0 3.0 0.00 0.00 0.00 30 1013.4
20260901000852 98 228 3.0 7.0 0.00 0.00 0.00 29 1013.4
20260901000346 98 150 2.0 6.0 0.00 0.00 0.00 29 1013.4
20260831235844 99 349 2.0 5.0 0.00 0.00 0.00 29 1013.6
20260831235341 99 200 2.0 6.0 0.00 0.00 0.00 29 1013.7
20260831234836 99 173 4.0 6.0 0.00 0.00 0.00 28 1013.5
20260831234331 99 171 3.0 4.0 0.00 0.00 0.00 28 1013.5
20260831233826 100 75 1.0 4.0 0.00 0.00 0.00 28 1013.5
20260831233321 99 215 2.0 3.0 0.00 0.00 0.00 28 1013.5
20260831232816 99 18 1.0 5.0 0.00 0.00 0.00 28 1013.4
20260831232313 100 201 4.0 8.0 0.00 0.00 0.00 28 1013.4
20260831231809 100 76 3.0 7.0 0.00 0.00 0.00 28 1013.4
20260831231305 100 115 2.0 4.0 0.00 0.00 0.00 28 1013.5
20260831230800 100 167 7.0 12.0 0.00 0.00 0.00 27 1013.4
20260831230255 100 188 5.0 6.0 0.00 0.00 0.00 28 1013.5
20260831225754 100 199 3.0 4.0 0.00 0.00 0.00 28 1013.5
20260831225249 101 122 7.0 9.0 0.00 0.00 0.00 28 1013.7
20260831224745 101 93 3.0 7.0 0.00 0.00 0.00 28 1013.4
20260831224240 101 167 6.0 10.0 0.00 0.00 0.00 27 1013.7
20260831223735 100 167 5.0 9.0 0.00 0.00 0.00 28 1013.7
20260831223231 100 61 3.0 4.0 0.00 0.00 0.00 29 1013.7
20260831222727 100 167 4.0 6.0 0.00 0.00 0.00 29 1013.7
20260831222222 99 122 2.0 4.0 0.00 0.00 0.00 29 1013.9
20260831221718 100 171 3.0 5.0 0.00 0.00 0.00 28 1013.9
20260831221213 101 212 6.0 8.0 0.00 0.00 0.00 28 1013.8
20260831220708 101 198 3.0 5.0 0.00 0.00 0.00 28 1014.1
20260831220203 101 198 6.0 9.0 0.00 0.00 0.00 28 1014.0
20260831215658 101 180 5.0 7.0 0.00 0.00 0.00 28 1014.2
20260831215154 102 331 2.0 7.0 0.00 0.00 0.00 28 1014.2
20260831214651 102 182 9.0 10.0 0.00 0.00 0.00 28 1014.0
20260831214147 101 116 3.0 10.0 0.00 0.00 0.00 28 1014.3
20260831213643 101 93 3.0 5.0 0.00 0.00 0.00 28 1014.1
20260831213138 101 127 3.0 8.0 0.00 0.00 0.00 28 1014.2
20260831212634 101 162 1.0 10.0 0.00 0.00 0.00 28 1014.3
20260831212131 100 185 6.0 9.0 0.00 0.00 0.00 28 1014.3
20260831211629 100 202 4.0 5.0 0.00 0.00 0.00 30 1014.3
20260831211124 99 206 5.0 8.0 0.00 0.00 0.00 29 1014.5
20260831210619 98 190 4.0 7.0 0.00 0.00 0.00 30 1014.5
20260831210115 98 190 4.0 9.0 0.00 0.00 0.00 30 1014.6
20260831205614 99 198 4.0 10.0 0.00 0.00 0.00 29 1014.8
20260831205110 101 165 2.0 7.0 0.00 0.00 0.00 28 1014.7
20260831204605 101 162 4.0 11.0 0.00 0.00 0.00 28 1014.8
20260831204103 101 183 3.0 6.0 0.00 0.00 0.00 29 1015.0
20260831203603 100 114 6.0 6.0 0.00 0.00 0.00 29 1015.0
20260831203103 101 140 5.0 7.0 0.00 0.00 0.00 28 1015.1
20260831202601 101 166 3.0 8.0 0.00 0.00 0.00 28 1014.9
20260831202056 102 180 4.0 9.0 0.00 0.00 0.00 28 1015.1
20260831201554 100 233 3.0 6.0 0.00 0.00 0.00 29 1015.0
20260831201050 100 86 4.0 5.0 0.00 0.00 0.00 29 1015.3
20260831200546 98 202 6.0 7.0 0.00 0.00 0.00 30 1015.4
20260831200041 99 227 3.0 8.0 0.00 0.00 0.00 29 1015.3
20260831195536 100 208 3.0 10.0 0.00 0.00 0.00 29 1015.5
20260831195031 99 46 3.0 5.0 0.00 0.00 0.00 31 1015.5
20260831194526 98 110 5.0 7.0 0.00 0.00 0.00 32 1015.8
20260831194020 99 95 3.0 9.0 0.00 0.00 0.00 31 1015.7
20260831193516 100 100 3.0 8.0 0.00 0.00 0.00 31 1015.7
20260831193011 100 73 4.0 7.0 0.00 0.00 0.00 31 1016.0
20260831192505 100 124 4.0 8.0 0.00 0.00 0.00 31 1015.8
20260831192000 100 199 3.0 7.0 0.00 0.00 0.00 30 1015.8
20260831191451 101 268 3.0 7.0 0.00 0.00 0.00 29 1015.9
20260831190947 99 177 3.0 11.0 0.00 0.00 0.00 31 1016.0
20260831190442 100 266 1.0 7.0 0.00 0.00 0.00 32 1016.0
20260831185940 100 180 4.0 10.0 0.00 0.00 0.00 32 1016.1
20260831185436 99 233 3.0 8.0 0.00 0.00 0.00 32 1016.0
20260831184930 99 291 1.0 10.0 0.00 0.00 0.00 33 1016.1
20260831184425 99 187 4.0 8.0 0.00 0.00 0.00 33 1016.2
20260831183921 99 212 5.0 6.0 0.00 0.00 0.00 34 1016.3
20260831183420 98 109 5.0 10.0 0.00 0.00 0.00 35 1016.3
20260831182920 97 167 3.0 9.0 0.00 0.00 0.00 35 1016.2
20260831182415 98 199 4.0 11.0 0.00 0.00 0.00 35 1016.5
20260831181910 98 178 9.0 11.0 0.00 0.00 0.00 35 1016.5
20260831181406 97 193 4.0 14.0 0.00 0.00 0.00 36 1016.6
20260831180906 97 112 7.0 9.0 0.00 0.00 0.00 35 1016.9
20260831180400 97 110 1.0 9.0 0.00 0.00 0.00 36 1016.9
20260831175859 97 96 2.0 11.0 0.00 0.00 0.00 36 1017.1
20260831175356 97 211 5.0 9.0 0.00 0.00 0.00 36 1017.1
20260831174852 97 80 4.0 10.0 0.00 0.00 0.00 36 1017.0
20260831174347 96 109 3.0 7.0 0.00 0.00 0.00 37 1017.3
20260831173846 96 106 10.0 12.0 0.00 0.00 0.00 36 1017.3
20260831173340 97 141 4.0 6.0 0.00 0.00 0.00 36 1017.2
20260831172836 96 180 3.0 12.0 0.00 0.00 0.00 36 1017.4
20260831172331 96 191 6.0 6.0 0.00 0.00 0.00 37 1017.4
20260831171831 95 175 5.0 6.0 0.00 0.00 0.00 37 1017.5
20260831171327 96 229 4.0 5.0 0.00 0.00 0.00 37 1017.4
20260831170824 95 291 5.0 15.0 0.00 0.00 0.00 38 1017.6
20260831170320 95 138 3.0 9.0 0.00 0.00 0.00 38 1017.6
20260831165816 95 156 3.0 7.0 0.00 0.00 0.00 37 1017.6
20260831165312 96 142 7.0 14.0 0.00 0.00 0.00 36 1017.5
20260831164808 96 105 2.0 4.0 0.00 0.00 0.00 37 1017.7
20260831164304 95 134 5.0 7.0 0.00 0.00 0.00 37 1017.5
20260831163759 95 178 3.0 6.0 0.00 0.00 0.00 38 1017.5
20260831163255 95 126 3.0 7.0 0.00 0.00 0.00 38 1017.6
20260831162753 94 231 6.0 6.0 0.00 0.00 0.00 39 1017.5
20260831162248 94 185 5.0 10.0 0.00 0.00 0.00 39 1017.7
20260831161742 95 216 3.0 7.0 0.00 0.00 0.00 39 1017.6
20260831161238 95 201 6.0 7.0 0.00 0.00 0.00 38 1017.6
20260831160737 94 141 3.0 10.0 0.00 0.00 0.00 39 1017.5
20260831160227 94 196 6.0 9.0 0.00 0.00 0.00 39 1017.6
20260831155727 92 144 2.0 5.0 0.00 0.00 0.00 42 1017.7
20260831155223 93 246 6.0 7.0 0.00 0.00 0.00 41 1017.5
20260831154719 92 202 7.0 8.0 0.00 0.00 0.00 42 1017.6
20260831154215 92 236 2.0 6.0 0.00 0.00 0.00 42 1017.8
20260831153713 92 200 5.0 6.0 0.00 0.00 0.00 42 1017.6
20260831153209 92 181 3.0 9.0 0.00 0.00 0.00 43 1017.5
20260831152705 92 88 4.0 7.0 0.00 0.00 0.00 43 1017.5
20260831152200 91 195 4.0 8.0 0.00 0.00 0.00 45 1017.4
20260831151700 90 191 4.0 5.0 0.00 0.00 0.00 45 1017.5
20260831151154 90 304 2.0 9.0 0.00 0.00 0.00 45 1017.3